Regional Weather Roundup
Issued by NWS

Home | Current Version | Previous Version | Text Only | Print | Product List | Glossary On
Versions: 1 2 3 4 5 6 7 8 9 10 11 12 13 14 15 16 17 18 19 20 21 22 23 24 25 26 27 28 29 30 31 32 33 34 35 36 37 38 39 40 41 42 43 44 45 46 47 48 49 50
829
ASUS43 KLMK 231110
RWRKY
KENTUCKY REGIONAL WEATHER ROUNDUP
NATIONAL WEATHER SERVICE LOUISVILLE KY
600 AM EST MON JAN 23 2017

NOTE "FAIR" INDICATES FEW OR NO CLOUDS BELOW 12,000 FEET
WITH NO SIGNIFICANT WEATHER AND/OR OBSTRUCTIONS TO VISIBILITY.

KYZ001>023-026-027-061>063-070>075-231200-
WESTERN AND SOUTH CENTRAL KENTUCKY

CITY           SKY/WX    TMP DP  RH WIND       PRES   REMARKS
PADUCAH        PTCLDY    42  35  76 NW16G24   29.64R
HENDERSON      CLOUDY    45  37  76 NW20G26   29.58R
OWENSBORO      CLOUDY    46  42  86 N17G28    29.55R
HOPKINSVILLE   CLOUDY    47  43  88 NW16G25   29.52R
BOWLING GREEN  CLOUDY    54  48  80 NW14G24   29.42R
GLASGOW        LGT RAIN  53  50  89 N17G23    29.38R
$$

KYZ024-025-028>034-038-045-046-053-231200-
NORTH CENTRAL KENTUCKY

CITY           SKY/WX    TMP DP  RH WIND       PRES   REMARKS
LOUISVILLE/SDF LGT RAIN  53  47  79 N20G29    29.43R
LOUISVILLE/LOU LGT RAIN  52  47  83 N15G24    29.44R
FORT KNOX      CLOUDY    52  47  84 NW14G24   29.42R
$$

KYZ035>037-039>044-047>052-055>060-089>105-231200-
NORTHEAST KENTUCKY

CITY           SKY/WX    TMP DP  RH WIND       PRES   REMARKS
LEXINGTON      LGT RAIN  52  49  89 N17G24    29.35R
COVINGTON      LGT RAIN  48  47  96 N15       29.43R FOG
FRANKFORT      RAIN      52  48  86 N14       29.37R FOG
$$

KYZ054-064>069-076>088-106>120-231200-
SOUTHEAST KENTUCKY

CITY           SKY/WX    TMP DP  RH WIND       PRES   REMARKS
JACKSON        RAIN      51  49  92 NE6       29.28R FOG
LONDON         LGT RAIN  52  49  89 N12       29.27R
SOMERSET       LGT RAIN  52  52 100 N12G18    29.31R
MIDDLESBORO    LGT RAIN  50  50 100 CALM      29.24R
MONTICELLO     LGT RAIN  53  51  93 N20G25    29.31R
$$





USA.gov is the U.S. government's official web portal to all federal, state and local government web resources and services.